Weather History for Sanford, FL

Change the Weather History Date:

Saturday, July 20, 2013

  Actual Average Record
Temperature  
Mean Temperature 80 °F -  
Max Temperature 89 °F 91 °F 97 °F (1963)
Min Temperature 72 °F 71 °F 68 °F (1958)
Cooling Degree Days 15    
Growing Degree Days 30 (Base 50)    
Moisture  
Dew Point 73 °F    
Average Humidity 91    
Maximum Humidity 100    
Minimum Humidity 61    
Precipitation  
Precipitation 0.29 in - - ()
Sea Level Pressure  
Sea Level Pressure 30.08 in    
Wind  
Wind Speed 4 mph (SSE)    
Max Wind Speed 22 mph    
Max Gust Speed 24 mph    
Visibility 9 miles    
Events Rain , Thunderstorm    
Averages and records for this station are not official NWS values.
T = Trace of Precipitation, MM = Missing Value Source: NWS Daily Summary

Daily Weather History Graph

Daily Weather History Graph

Search for Another Location

Airport:

Trip Planner

Search our weather history database for the weather conditions in past years. The results will help you decide how hot, cold, wet, or windy it might be!

Date:

Astronomy

Jul. 20, 2013 Rise Set
Actual Time 6:39 AM EDT 8:22 PM EDT
Civil Twilight 6:13 AM EDT 8:49 PM EDT
Nautical Twilight 5:41 AM EDT 9:20 PM EDT
Astronomical Twilight 5:08 AM EDT 9:53 PM EDT
Moon 6:25 PM EDT (7/20) 4:17 AM EDT (7/20)
Length of Visible Light 14h 35m
Length of Day
13h 43m
Waxing Gibbous, 93% of the Moon is Illuminated
Jul 20
Waxing Gibbous
Jul 22
Full
Jul 29
Last Quarter
Aug 6
New
Aug 14
First Quarter

Hourly Weather History & Observations

Time (EDT) Temp. Heat Index Dew Point Humidity Pressure Visibility Wind Dir Wind Speed Gust Speed Precip Events Conditions
12:53 AM 73.9 °F - 72.0 °F 93% 30.11 in 10.0 mi South 4.6 mph - N/A   Scattered Clouds
1:53 AM 73.9 °F - 73.0 °F 97% 30.11 in 10.0 mi Calm Calm - 0.01 in   Clear
2:53 AM 73.9 °F - 73.0 °F 97% 30.09 in 10.0 mi Calm Calm - 0.00 in   Clear
3:53 AM 73.0 °F - 72.0 °F 96% 30.07 in 10.0 mi ESE 3.5 mph - N/A   Clear
4:53 AM 73.0 °F - 72.0 °F 96% 30.06 in 10.0 mi Calm Calm - N/A   Clear
5:53 AM 73.0 °F - 73.0 °F 100% 30.07 in 10.0 mi SE 3.5 mph - N/A   Clear
6:53 AM 72.0 °F - 72.0 °F 100% 30.09 in 10.0 mi SSE 5.8 mph - N/A   Clear
7:53 AM 73.0 °F - 73.0 °F 100% 30.10 in 10.0 mi SE 4.6 mph - N/A   Partly Cloudy
8:53 AM 73.9 °F - 73.9 °F 100% 30.11 in 10.0 mi SE 3.5 mph - N/A   Clear
9:53 AM 75.9 °F - 75.9 °F 100% 30.12 in 10.0 mi South 4.6 mph - N/A   Clear
10:53 AM 79.0 °F - 77.0 °F 94% 30.12 in 10.0 mi South 8.1 mph - N/A   Clear
11:53 AM 82.0 °F 89.4 °F 75.9 °F 82% 30.12 in 10.0 mi SSE 5.8 mph - N/A   Partly Cloudy
12:53 PM 82.9 °F 90.8 °F 75.9 °F 79% 30.11 in 10.0 mi Calm Calm - N/A   Mostly Cloudy
1:53 PM 87.1 °F 94.5 °F 73.0 °F 63% 30.08 in 10.0 mi WSW 6.9 mph - N/A   Scattered Clouds
2:53 PM 88.0 °F 95.6 °F 73.0 °F 61% 30.06 in 10.0 mi SSW 5.8 mph - N/A   Partly Cloudy
3:53 PM 81.0 °F 85.2 °F 72.0 °F 74% 30.06 in 10.0 mi SE 21.9 mph - N/A   Mostly Cloudy
4:16 PM 77.0 °F - 71.6 °F 83% 30.07 in 4.0 mi South 12.7 mph 24.2 mph N/A Rain , Thunderstorm Thunderstorms and Rain
4:18 PM 75.2 °F - 71.6 °F 89% 30.07 in 3.0 mi South 8.1 mph 24.2 mph N/A Rain , Thunderstorm Heavy Thunderstorms and Rain
4:28 PM 75.2 °F - 73.4 °F 94% 30.05 in 3.0 mi SSE 6.9 mph - N/A Rain , Thunderstorm Heavy Thunderstorms and Rain
4:53 PM 77.0 °F - 73.0 °F 88% 30.05 in 10.0 mi SSE 8.1 mph - 0.21 in   Mostly Cloudy
5:53 PM 78.1 °F - 73.9 °F 87% 30.04 in 10.0 mi SE 4.6 mph - 0.01 in   Partly Cloudy
6:53 PM 78.1 °F - 75.0 °F 90% 30.07 in 10.0 mi Calm Calm - 0.01 in Rain Light Rain
7:53 PM 77.0 °F - 75.0 °F 94% 30.07 in 10.0 mi NE 4.6 mph - 0.03 in Rain Light Rain
8:53 PM 75.0 °F - 75.0 °F 100% 30.06 in 10.0 mi ENE 3.5 mph - 0.01 in Rain Light Rain
9:53 PM 73.0 °F - 73.0 °F 100% 30.07 in 10.0 mi Calm Calm - N/A   Mostly Cloudy
10:53 PM 73.0 °F - 73.0 °F 100% 30.07 in 10.0 mi Calm Calm - 0.01 in   Partly Cloudy
11:53 PM 73.0 °F - 73.0 °F 100% 30.09 in 10.0 mi Calm Calm - N/A   Clear